AMC-11

Last updated on Thu Nov 21 2024 00:02:40 GMT+0000 (Coordinated Universal Time)

1 28252U 04017A 24325.33113039 -.00000048 00000+0 00000+0 0 9991 2 28252 0.0193 342.0372 0003045 263.7725 182.1472 1.00272123 75116
UTC large
Height (km)
Speed (km/s)
/
Latitude / Longitude
Inclination (degrees)
Orbital Period (minutes)
Azimuth
Elevation
Range (km)
Doppler Factor

Next 0 passes for location: London (51.5072 / 0.1276)

Sorry there are no passes over London.